Location: Unspecified
(0.0000°N, 0.0000°E)
Time: 16:29:43
(UTC+00:00)

Vanguard 1 Rocket - Pass Details

Date: 24 January 2020
Orbit: 650 x 4226 km, 34.3° (Epoch: 24 February)

Event Time Altitude Azimuth Distance (km) Brightness Sun altitude
Rises 18:27:02 0° 300° (WNW) 7,959 12.8 -3.5°
Reaches altitude 10° 18:32:12 10° 298° (WNW) 7,174 12.6 -4.8°
Maximum altitude 18:58:19 67° 220° (SW) 4,186 10.9 -10.9°
Drops below altitude 10° 19:18:11 10° 138° (SE) 5,668 11.2 -15.6°
Sets 19:21:44 0° 135° (SE) 6,300 11.4 -16.4°
